QPF
0.05 0.04 0.03 0.02 0.01 0.00 0.00 0.00 0.00 0.00 0.00 0.00 0.00 0.00 0.00 0.00 0.00 0.00 0.00 0.00 0.00 0.00 0.00 0.00 0.00 0.00 0.00 0.00 0.00 0.00 0.00 0.00 0.00 0.00 0.00 0.00 0.00 0.00 0.00 0.01 0.01 0.01 0.01
0.03 0.03 0.02 0.01 0.01 0.00 0.00 0.00 0.00 0.00 0.00 0.00 0.00 0.00 0.00 0.00 0.00 0.00 0.00 0.00 0.00 0.00 0.00 0.00 0.00 0.00 0.00 0.00 0.01 0.01 0.01 0.01 0.01 0.01 0.01 0.01 0.01 0.01 0.01 0.01 0.01 0.01 0.01
0.01 0.01 0.01 0.00 0.00 0.00 0.00 0.00 0.00 0.00 0.00 0.00 0.00 0.00 0.00 0.00 0.00 0.00 0.00 0.00 0.00 0.00 0.00 0.00 0.00 0.01 0.01 0.01 0.02 0.02 0.02 0.01 0.02 0.02 0.02 0.01 0.01 0.01 0.02 0.02 0.02 0.02 0.01
0.00 0.00 0.00 0.01 0.01 0.01 0.01 0.00 0.00 0.00 0.00 0.00 0.00 0.00 0.00 0.00 0.00 0.00 0.00 0.00 0.00 0.00 0.00 0.01 0.01 0.01 0.01 0.02 0.01 0.02 0.02 0.02 0.02 0.03 0.02 0.02 0.02 0.02 0.03 0.04 0.03 0.02 0.02
0.00 0.00 0.01 0.01 0.00 0.00 0.00 0.00 0.00 0.00 0.00 0.00 0.00 0.00 0.00 0.00 0.00 0.00 0.00 0.00 0.00 0.01 0.01 0.01 0.01 0.01 0.01 0.00 0.00 0.01 0.02 0.03 0.03 0.03 0.03 0.03 0.02 0.03 0.04 0.04 0.04 0.03 0.02
0.01 0.01 0.01 0.01 0.00 0.00 0.00 0.00 0.00 0.00 0.00 0.00 0.00 0.00 0.00 0.00 0.00 0.00 0.00 0.00 0.00 0.01 0.02 0.02 0.02 0.01 0.01 0.01 0.01 0.01 0.01 0.02 0.03 0.05 0.05 0.05 0.05 0.05 0.06 0.05 0.05 0.04 0.03
0.01 0.01 0.01 0.00 0.00 0.00 0.00 0.00 0.01 0.00 0.00 0.01 0.00 0.01 0.01 0.01 0.00 0.00 0.00 0.00 0.01 0.02 0.02 0.02 0.02 0.02 0.02 0.03 0.02 0.01 0.01 0.02 0.05 0.07 0.07 0.07 0.07 0.06 0.07 0.05 0.05 0.05 0.04
0.01 0.00 0.00 0.00 0.00 0.00 0.00 0.01 0.01 0.01 0.01 0.01 0.01 0.01 0.02 0.01 0.00 0.00 0.00 0.00 0.01 0.02 0.02 0.02 0.02 0.03 0.03 0.01 0.00 0.01 0.02 0.05 0.06 0.06 0.07 0.06 0.05 0.04 0.05 0.04 0.04 0.04 0.03
0.00 0.00 0.01 0.01 0.01 0.01 0.01 0.01 0.01 0.01 0.01 0.01 0.01 0.01 0.02 0.02 0.00 0.00 0.00 0.00 0.01 0.01 0.01 0.02 0.02 0.03 0.01 0.00 0.00 0.02 0.03 0.05 0.03 0.02 0.02 0.02 0.02 0.02 0.02 0.03 0.04 0.06 0.04
0.01 0.01 0.01 0.01 0.01 0.01 0.01 0.02 0.02 0.02 0.02 0.01 0.01 0.01 0.02 0.02 0.01 0.00 0.00 0.00 0.01 0.01 0.01 0.02 0.02 0.01 0.00 0.00 0.00 0.02 0.04 0.03 0.02 0.02 0.03 0.04 0.05 0.05 0.03 0.04 0.06 0.07 0.06
0.01 0.01 0.01 0.01 0.01 0.01 0.01 0.02 0.02 0.02 0.02 0.02 0.02 0.02 0.02 0.01 0.01 0.00 0.00 0.00 0.00 0.01 0.01 0.02 0.04 0.00 0.00 0.00 0.00 0.02 0.03 0.01 0.02 0.04 0.06 0.06 0.05 0.04 0.04 0.05 0.06 0.07 0.06
0.01 0.01 0.01 0.00 0.00 0.00 0.02 0.03 0.03 0.02 0.02 0.02 0.02 0.02 0.01 0.01 0.01 0.00 0.00 0.00 0.00 0.01 0.02 0.03 0.03 0.00 0.00 0.00 0.01 0.01 0.01 0.01 0.05 0.07 0.06 0.05 0.04 0.03 0.03 0.04 0.05 0.06 0.06
0.01 0.01 0.01 0.01 0.01 0.01 0.01 0.03 0.02 0.02 0.03 0.02 0.02 0.01 0.01 0.02 0.02 0.00 0.00 0.00 0.00 0.01 0.02 0.01 0.00 0.00 0.00 0.03 0.03 0.01 0.02 0.06 0.07 0.06 0.06 0.05 0.04 0.03 0.03 0.03 0.04 0.04 0.04
0.03 0.02 0.02 0.02 0.03 0.02 0.03 0.02 0.02 0.02 0.02 0.02 0.02 0.01 0.01 0.02 0.02 0.01 0.00 0.00 0.00 0.01 0.01 0.01 0.01 0.02 0.02 0.04 0.05 0.06 0.07 0.08 0.05 0.06 0.05 0.05 0.04 0.03 0.03 0.03 0.03 0.02 0.02
0.02 0.02 0.03 0.03 0.02 0.03 0.04 0.02 0.01 0.01 0.00 0.00 0.01 0.01 0.01 0.01 0.01 0.00 0.00 0.00 0.00 0.00 0.00 0.02 0.04 0.05 0.05 0.06 0.07 0.07 0.07 0.07 0.05 0.05 0.04 0.04 0.03 0.03 0.03 0.03 0.03 0.02 0.02
0.02 0.02 0.01 0.01 0.01 0.01 0.02 0.02 0.01 0.00 0.00 0.00 0.00 0.00 0.00 0.00 0.00 0.00 0.00 0.00 0.00 0.00 0.01 0.02 0.03 0.03 0.04 0.04 0.05 0.06 0.06 0.06 0.05 0.05 0.04 0.03 0.03 0.03 0.03 0.03 0.02 0.02 0.02
0.01 0.01 0.01 0.00 0.00 0.01 0.01 0.03 0.04 0.02 0.00 0.00 0.00 0.00 0.00 0.00 0.00 0.00 0.00 0.00 0.00 0.02 0.03 0.04 0.04 0.04 0.04 0.05 0.05 0.06 0.05 0.05 0.05 0.04 0.04 0.03 0.03 0.02 0.02 0.02 0.02 0.02 0.01
0.01 0.01 0.00 0.00 0.00 0.01 0.01 0.01 0.02 0.04 0.04 0.03 0.01 0.00 0.00 0.00 0.00 0.00 0.01 0.01 0.02 0.03 0.04 0.04 0.04 0.04 0.05 0.05 0.05 0.05 0.05 0.05 0.04 0.04 0.03 0.03 0.02 0.02 0.01 0.01 0.01 0.01 0.02
0.01 0.02 0.00 0.00 0.00 0.00 0.00 0.00 0.01 0.02 0.03 0.04 0.03 0.01 0.00 0.01 0.01 0.01 0.01 0.02 0.03 0.03 0.03 0.04 0.04 0.04 0.05 0.05 0.05 0.05 0.05 0.04 0.04 0.03 0.03 0.03 0.02 0.02 0.01 0.01 0.01 0.01 0.01
0.01 0.00 0.00 0.00 0.00 0.00 0.00 0.00 0.01 0.02 0.02 0.03 0.02 0.01 0.01 0.02 0.03 0.02 0.01 0.02 0.02 0.03 0.03 0.03 0.03 0.03 0.04 0.04 0.04 0.04 0.04 0.04 0.04 0.03 0.03 0.02 0.02 0.01 0.01 0.01 0.01 0.01 0.01
0.00 0.00 0.00 0.00 0.00 0.00 0.00 0.01 0.01 0.01 0.02 0.02 0.02 0.01 0.01 0.02 0.03 0.02 0.02 0.02 0.02 0.02 0.02 0.02 0.02 0.03 0.03 0.03 0.03 0.03 0.03 0.03 0.04 0.04 0.03 0.02 0.02 0.01 0.01 0.01 0.01 0.01 0.01
0.00 0.00 0.00 0.00 0.00 0.00 0.00 0.01 0.01 0.01 0.01 0.02 0.02 0.01 0.01 0.02 0.03 0.02 0.02 0.02 0.02 0.03 0.03 0.02 0.02 0.02 0.02 0.02 0.02 0.01 0.01 0.01 0.04 0.05 0.03 0.02 0.02 0.01 0.00 0.00 0.00 0.01 0.01
0.00 0.00 0.00 0.00 0.00 0.00 0.00 0.01 0.01 0.01 0.01 0.01 0.01 0.01 0.01 0.02 0.02 0.02 0.02 0.02 0.02 0.03 0.02 0.02 0.02 0.02 0.02 0.02 0.01 0.00 0.00 0.00 0.01 0.04 0.04 0.02 0.02 0.01 0.01 0.01 0.01 0.01 0.00
0.00 0.00 0.00 0.00 0.00 0.00 0.00 0.00 0.00 0.00 0.01 0.01 0.01 0.01 0.01 0.01 0.02 0.02 0.02 0.02 0.02 0.02 0.02 0.02 0.02 0.02 0.02 0.01 0.00 0.00 0.00 0.00 0.00 0.01 0.02 0.03 0.02 0.01 0.01 0.01 0.01 0.01 0.01
0.00 0.00 0.00 0.00 0.00 0.00 0.00 0.00 0.00 0.00 0.00 0.00 0.00 0.00 0.01 0.01 0.02 0.02 0.02 0.02 0.02 0.02 0.02 0.03 0.03 0.01 0.01 0.00 0.00 0.00 0.00 0.00 0.00 0.00 0.01 0.02 0.01 0.01 0.01 0.02 0.01 0.01 0.02
0.00 0.00 0.00 0.00 0.00 0.00 0.00 0.00 0.00 0.00 0.00 0.00 0.00 0.01 0.01 0.01 0.02 0.02 0.02 0.01 0.02 0.02 0.03 0.03 0.02 0.01 0.00 0.00 0.00 0.00 0.00 0.00 0.00 0.00 0.01 0.01 0.00 0.00 0.01 0.02 0.02 0.02 0.02
MSLP
1015.69 1016.27 1016.88 1017.46 1017.98 1018.42 1018.80 1019.12 1019.42 1019.71 1020.00 1020.27 1020.53 1020.76 1020.95 1021.09 1021.19 1021.24 1021.28 1021.31 1021.34 1021.38 1021.42 1021.46 1021.47 1021.43 1021.34 1021.19 1020.97 1020.70 1020.40 1020.08 1019.77 1019.46 1019.18 1018.90 1018.63 1018.36 1018.09 1017.79 1017.48 1017.16 1016.83
1016.62 1017.20 1017.76 1018.27 1018.72 1019.08 1019.39 1019.65 1019.90 1020.16 1020.42 1020.69 1020.95 1021.19 1021.38 1021.52 1021.61 1021.64 1021.64 1021.61 1021.57 1021.54 1021.50 1021.47 1021.42 1021.35 1021.24 1021.10 1020.91 1020.68 1020.43 1020.16 1019.88 1019.59 1019.30 1019.00 1018.69 1018.36 1018.00 1017.63 1017.23 1016.82 1016.39
1017.55 1018.10 1018.62 1019.06 1019.43 1019.72 1019.96 1020.16 1020.37 1020.60 1020.85 1021.11 1021.38 1021.63 1021.84 1021.98 1022.06 1022.08 1022.04 1021.96 1021.86 1021.75 1021.64 1021.53 1021.42 1021.31 1021.18 1021.03 1020.86 1020.66 1020.44 1020.20 1019.94 1019.65 1019.35 1019.02 1018.66 1018.28 1017.86 1017.42 1016.96 1016.48 1015.99
1018.47 1018.98 1019.44 1019.82 1020.11 1020.33 1020.50 1020.66 1020.83 1021.04 1021.28 1021.55 1021.82 1022.09 1022.30 1022.45 1022.53 1022.53 1022.46 1022.34 1022.18 1022.00 1021.82 1021.64 1021.48 1021.32 1021.16 1020.99 1020.82 1020.63 1020.41 1020.17 1019.91 1019.61 1019.28 1018.92 1018.52 1018.09 1017.63 1017.15 1016.66 1016.14 1015.62
1019.37 1019.83 1020.23 1020.53 1020.75 1020.90 1021.02 1021.14 1021.28 1021.47 1021.70 1021.97 1022.25 1022.52 1022.74 1022.90 1022.97 1022.95 1022.86 1022.69 1022.49 1022.25 1022.01 1021.78 1021.55 1021.35 1021.15 1020.95 1020.76 1020.55 1020.32 1020.06 1019.77 1019.44 1019.08 1018.67 1018.24 1017.78 1017.30 1016.81 1016.30 1015.79 1015.26
1020.21 1020.61 1020.93 1021.17 1021.32 1021.41 1021.49 1021.57 1021.69 1021.86 1022.09 1022.35 1022.63 1022.89 1023.11 1023.26 1023.32 1023.29 1023.17 1022.98 1022.73 1022.46 1022.17 1021.88 1021.61 1021.35 1021.11 1020.88 1020.64 1020.40 1020.13 1019.83 1019.50 1019.14 1018.73 1018.29 1017.83 1017.36 1016.87 1016.38 1015.90 1015.41 1014.91
1020.95 1021.28 1021.52 1021.69 1021.78 1021.83 1021.87 1021.93 1022.03 1022.19 1022.40 1022.65 1022.91 1023.16 1023.37 1023.50 1023.54 1023.50 1023.36 1023.15 1022.88 1022.57 1022.25 1021.93 1021.61 1021.30 1021.01 1020.73 1020.45 1020.16 1019.84 1019.50 1019.12 1018.71 1018.27 1017.81 1017.33 1016.85 1016.37 1015.91 1015.46 1015.01 1014.57
1021.54 1021.79 1021.97 1022.07 1022.12 1022.14 1022.16 1022.20 1022.29 1022.44 1022.63 1022.86 1023.10 1023.32 1023.50 1023.61 1023.64 1023.57 1023.43 1023.20 1022.92 1022.59 1022.24 1021.88 1021.53 1021.18 1020.85 1020.51 1020.18 1019.83 1019.47 1019.08 1018.67 1018.22 1017.75 1017.27 1016.78 1016.31 1015.86 1015.42 1015.02 1014.62 1014.23
1021.96 1022.14 1022.26 1022.32 1022.34 1022.34 1022.35 1022.39 1022.47 1022.60 1022.77 1022.97 1023.18 1023.38 1023.52 1023.61 1023.62 1023.54 1023.39 1023.16 1022.87 1022.53 1022.16 1021.78 1021.39 1021.01 1020.62 1020.24 1019.86 1019.47 1019.06 1018.64 1018.19 1017.72 1017.24 1016.76 1016.28 1015.82 1015.39 1015.00 1014.63 1014.28 1013.94
1022.23 1022.35 1022.42 1022.45 1022.46 1022.46 1022.47 1022.51 1022.59 1022.71 1022.86 1023.04 1023.22 1023.38 1023.50 1023.56 1023.55 1023.47 1023.30 1023.07 1022.78 1022.43 1022.05 1021.65 1021.23 1020.81 1020.38 1019.96 1019.53 1019.10 1018.67 1018.22 1017.76 1017.29 1016.81 1016.34 1015.89 1015.45 1015.05 1014.68 1014.34 1014.02 1013.70
1022.37 1022.45 1022.50 1022.52 1022.53 1022.54 1022.56 1022.61 1022.69 1022.81 1022.95 1023.10 1023.25 1023.38 1023.47 1023.52 1023.49 1023.40 1023.24 1023.01 1022.71 1022.36 1021.97 1021.54 1021.09 1020.63 1020.16 1019.69 1019.23 1018.78 1018.32 1017.87 1017.41 1016.96 1016.51 1016.07 1015.64 1015.23 1014.85 1014.50 1014.18 1013.87 1013.56
1022.44 1022.50 1022.54 1022.57 1022.60 1022.62 1022.66 1022.73 1022.82 1022.93 1023.06 1023.20 1023.33 1023.43 1023.51 1023.53 1023.50 1023.41 1023.24 1023.01 1022.71 1022.34 1021.93 1021.47 1020.98 1020.48 1019.98 1019.47 1018.98 1018.51 1018.05 1017.60 1017.17 1016.75 1016.34 1015.93 1015.54 1015.16 1014.81 1014.47 1014.15 1013.84 1013.52
1022.48 1022.54 1022.59 1022.63 1022.67 1022.73 1022.79 1022.88 1022.98 1023.09 1023.22 1023.35 1023.46 1023.56 1023.62 1023.64 1023.60 1023.50 1023.33 1023.09 1022.77 1022.39 1021.94 1021.45 1020.92 1020.38 1019.83 1019.29 1018.78 1018.29 1017.83 1017.41 1017.01 1016.63 1016.26 1015.91 1015.56 1015.22 1014.88 1014.56 1014.23 1013.91 1013.58
1022.51 1022.57 1022.64 1022.70 1022.77 1022.85 1022.94 1023.04 1023.16 1023.29 1023.42 1023.55 1023.66 1023.75 1023.81 1023.82 1023.77 1023.67 1023.48 1023.22 1022.88 1022.47 1021.99 1021.45 1020.88 1020.29 1019.70 1019.13 1018.59 1018.10 1017.66 1017.26 1016.89 1016.56 1016.25 1015.94 1015.64 1015.33 1015.02 1014.71 1014.39 1014.06 1013.72
1022.53 1022.60 1022.68 1022.76 1022.85 1022.96 1023.07 1023.20 1023.34 1023.48 1023.63 1023.76 1023.88 1023.97 1024.03 1024.04 1023.99 1023.86 1023.66 1023.38 1023.00 1022.55 1022.02 1021.44 1020.82 1020.19 1019.56 1018.97 1018.42 1017.92 1017.49 1017.11 1016.79 1016.50 1016.23 1015.97 1015.71 1015.44 1015.16 1014.87 1014.56 1014.24 1013.90
1022.51 1022.59 1022.67 1022.77 1022.88 1023.01 1023.15 1023.30 1023.47 1023.64 1023.80 1023.95 1024.08 1024.18 1024.24 1024.24 1024.18 1024.04 1023.82 1023.50 1023.09 1022.59 1022.02 1021.40 1020.74 1020.07 1019.41 1018.80 1018.24 1017.74 1017.32 1016.97 1016.67 1016.41 1016.18 1015.96 1015.74 1015.50 1015.25 1014.99 1014.70 1014.40 1014.09
1022.43 1022.51 1022.60 1022.70 1022.83 1022.97 1023.14 1023.32 1023.51 1023.71 1023.90 1024.07 1024.22 1024.34 1024.40 1024.40 1024.33 1024.17 1023.92 1023.56 1023.12 1022.58 1021.98 1021.32 1020.63 1019.93 1019.26 1018.64 1018.08 1017.59 1017.18 1016.84 1016.55 1016.31 1016.10 1015.90 1015.70 1015.49 1015.27 1015.03 1014.78 1014.51 1014.24
1022.29 1022.35 1022.43 1022.53 1022.67 1022.83 1023.02 1023.23 1023.45 1023.68 1023.91 1024.12 1024.29 1024.42 1024.49 1024.49 1024.40 1024.22 1023.94 1023.57 1023.09 1022.53 1021.90 1021.23 1020.53 1019.83 1019.16 1018.55 1017.99 1017.51 1017.10 1016.76 1016.48 1016.24 1016.03 1015.82 1015.63 1015.42 1015.21 1014.99 1014.77 1014.55 1014.32
1022.09 1022.12 1022.18 1022.28 1022.42 1022.59 1022.81 1023.05 1023.31 1023.58 1023.84 1024.08 1024.29 1024.43 1024.51 1024.51 1024.42 1024.22 1023.93 1023.53 1023.04 1022.47 1021.84 1021.17 1020.48 1019.80 1019.16 1018.56 1018.02 1017.55 1017.15 1016.80 1016.50 1016.23 1015.99 1015.77 1015.54 1015.32 1015.10 1014.89 1014.69 1014.49 1014.31
1021.87 1021.87 1021.91 1021.99 1022.13 1022.32 1022.55 1022.83 1023.12 1023.43 1023.73 1024.00 1024.23 1024.40 1024.49 1024.49 1024.39 1024.19 1023.89 1023.48 1023.00 1022.43 1021.82 1021.18 1020.53 1019.89 1019.28 1018.72 1018.21 1017.75 1017.34 1016.98 1016.65 1016.34 1016.05 1015.77 1015.50 1015.23 1014.98 1014.75 1014.55 1014.37 1014.22
1021.67 1021.64 1021.65 1021.73 1021.86 1022.06 1022.32 1022.61 1022.94 1023.28 1023.61 1023.92 1024.17 1024.35 1024.45 1024.45 1024.36 1024.16 1023.86 1023.46 1022.99 1022.46 1021.88 1021.29 1020.69 1020.11 1019.55 1019.03 1018.55 1018.10 1017.69 1017.30 1016.93 1016.56 1016.21 1015.85 1015.51 1015.18 1014.88 1014.61 1014.38 1014.19 1014.05
1021.56 1021.49 1021.48 1021.54 1021.67 1021.88 1022.14 1022.46 1022.81 1023.17 1023.52 1023.85 1024.11 1024.31 1024.41 1024.42 1024.33 1024.13 1023.85 1023.48 1023.04 1022.55 1022.02 1021.49 1020.96 1020.43 1019.94 1019.46 1019.01 1018.58 1018.16 1017.74 1017.32 1016.89 1016.46 1016.02 1015.60 1015.19 1014.82 1014.49 1014.22 1014.01 1013.85
1021.55 1021.45 1021.43 1021.48 1021.60 1021.81 1022.07 1022.40 1022.75 1023.12 1023.48 1023.81 1024.08 1024.27 1024.38 1024.40 1024.31 1024.13 1023.87 1023.53 1023.13 1022.69 1022.22 1021.75 1021.28 1020.83 1020.39 1019.96 1019.53 1019.11 1018.68 1018.23 1017.76 1017.27 1016.77 1016.25 1015.75 1015.26 1014.82 1014.43 1014.10 1013.85 1013.66
1021.64 1021.53 1021.50 1021.54 1021.66 1021.86 1022.12 1022.43 1022.78 1023.14 1023.49 1023.81 1024.07 1024.26 1024.37 1024.38 1024.31 1024.15 1023.91 1023.60 1023.25 1022.86 1022.45 1022.04 1021.64 1021.24 1020.84 1020.45 1020.05 1019.63 1019.19 1018.72 1018.21 1017.67 1017.10 1016.52 1015.95 1015.40 1014.89 1014.45 1014.08 1013.78 1013.56
1021.81 1021.71 1021.67 1021.71 1021.83 1022.01 1022.26 1022.55 1022.88 1023.22 1023.54 1023.84 1024.08 1024.26 1024.36 1024.39 1024.32 1024.18 1023.97 1023.71 1023.40 1023.06 1022.71 1022.35 1021.99 1021.63 1021.27 1020.90 1020.52 1020.10 1019.65 1019.16 1018.62 1018.05 1017.44 1016.82 1016.20 1015.61 1015.07 1014.58 1014.17 1013.85 1013.61
1022.02 1021.94 1021.92 1021.97 1022.08 1022.25 1022.48 1022.74 1023.04 1023.34 1023.63 1023.90 1024.12 1024.29 1024.39 1024.41 1024.37 1024.26 1024.08 1023.85 1023.59 1023.30 1022.99 1022.67 1022.34 1022.01 1021.68 1021.32 1020.94 1020.52 1020.06 1019.56 1019.01 1018.42 1017.80 1017.16 1016.52 1015.92 1015.35 1014.86 1014.43 1014.09 1013.84
Thickness
5651 5647 5642 5637 5633 5628 5622 5617 5612 5608 5603 5598 5593 5589 5585 5580 5575 5570 5566 5563 5558 5553 5548 5544 5538 5533 5529 5523 5519 5515 5512 5508 5505 5505 5499 5495 5490 5486 5482 5479 5477 5475 5474
5635 5631 5626 5622 5617 5612 5607 5601 5596 5592 5587 5583 5579 5574 5570 5565 5560 5555 5551 5546 5542 5536 5531 5526 5522 5518 5512 5507 5503 5499 5495 5490 5487 5486 5483 5479 5475 5472 5469 5467 5465 5464 5462
5619 5615 5610 5606 5601 5596 5591 5586 5581 5576 5571 5567 5563 5558 5554 5549 5544 5539 5533 5529 5524 5519 5515 5510 5506 5502 5498 5493 5488 5484 5481 5477 5473 5470 5469 5466 5463 5460 5458 5456 5454 5452 5451
5603 5598 5593 5588 5583 5579 5574 5569 5565 5560 5556 5551 5546 5542 5537 5531 5525 5519 5514 5510 5507 5504 5500 5496 5493 5489 5485 5480 5475 5471 5468 5463 5459 5457 5456 5454 5452 5450 5446 5444 5444 5443 5443
5586 5580 5574 5570 5566 5561 5557 5552 5547 5543 5539 5534 5530 5525 5520 5513 5504 5498 5494 5493 5490 5488 5486 5483 5480 5477 5473 5468 5463 5458 5453 5450 5447 5445 5444 5443 5442 5439 5436 5435 5435 5436 5437
5568 5563 5558 5554 5549 5545 5540 5535 5530 5525 5521 5517 5512 5507 5502 5494 5485 5481 5477 5475 5474 5473 5472 5470 5468 5466 5462 5457 5451 5447 5442 5439 5437 5435 5434 5433 5433 5431 5430 5429 5428 5428 5431
5551 5546 5541 5537 5533 5528 5525 5519 5514 5508 5504 5499 5494 5490 5484 5475 5470 5466 5463 5461 5462 5461 5459 5457 5455 5453 5449 5444 5440 5438 5436 5433 5432 5429 5428 5428 5427 5427 5426 5425 5423 5422 5423
5534 5530 5526 5521 5516 5511 5507 5502 5498 5492 5487 5483 5478 5473 5468 5460 5455 5451 5449 5450 5451 5449 5447 5445 5442 5440 5436 5431 5430 5430 5430 5430 5428 5428 5427 5426 5426 5425 5422 5421 5420 5421 5421
5520 5516 5512 5507 5501 5497 5492 5487 5482 5477 5472 5468 5463 5458 5454 5447 5441 5438 5436 5438 5439 5437 5436 5435 5432 5430 5426 5423 5423 5424 5426 5427 5427 5427 5426 5426 5425 5424 5422 5419 5419 5418 5419
5508 5503 5498 5493 5488 5483 5477 5472 5467 5462 5457 5453 5448 5444 5440 5435 5428 5425 5423 5425 5426 5425 5425 5426 5425 5422 5420 5418 5418 5420 5422 5424 5425 5426 5426 5426 5426 5424 5422 5419 5417 5415 5415
5495 5490 5484 5479 5475 5470 5464 5458 5453 5448 5443 5438 5434 5430 5427 5423 5418 5414 5412 5413 5413 5414 5417 5419 5419 5418 5417 5418 5417 5419 5421 5422 5423 5424 5426 5426 5425 5424 5422 5419 5417 5414 5413
5483 5478 5473 5468 5463 5458 5451 5445 5440 5435 5430 5426 5422 5419 5416 5412 5409 5406 5405 5404 5404 5406 5410 5413 5415 5416 5417 5419 5421 5423 5423 5422 5424 5425 5426 5425 5424 5423 5421 5419 5418 5415 5413
5473 5468 5462 5457 5451 5445 5439 5434 5429 5424 5420 5416 5412 5409 5407 5404 5402 5399 5399 5400 5401 5403 5407 5410 5413 5416 5419 5422 5424 5425 5425 5425 5426 5426 5426 5425 5424 5423 5421 5420 5418 5416 5415
5464 5459 5453 5447 5442 5435 5429 5425 5420 5414 5410 5407 5403 5401 5398 5397 5394 5392 5393 5396 5398 5402 5405 5409 5413 5418 5421 5423 5425 5427 5427 5427 5427 5426 5426 5426 5425 5423 5422 5420 5418 5416 5414
5456 5451 5447 5442 5436 5430 5423 5414 5411 5402 5397 5395 5393 5391 5390 5390 5386 5384 5386 5390 5393 5397 5400 5408 5415 5419 5423 5425 5427 5428 5429 5429 5429 5428 5428 5426 5425 5424 5422 5420 5418 5417 5414
5450 5446 5442 5438 5433 5428 5420 5411 5402 5397 5392 5388 5385 5383 5384 5383 5384 5386 5388 5391 5396 5399 5403 5409 5415 5419 5422 5424 5427 5429 5430 5431 5431 5430 5429 5428 5426 5425 5423 5421 5419 5417 5415
5446 5441 5438 5434 5430 5424 5419 5413 5404 5395 5390 5387 5385 5383 5383 5384 5386 5388 5391 5395 5400 5403 5407 5412 5416 5420 5423 5426 5428 5430 5431 5432 5432 5432 5430 5429 5428 5426 5424 5423 5421 5419 5417
5444 5438 5434 5431 5428 5424 5420 5415 5409 5403 5396 5392 5387 5385 5386 5387 5389 5391 5395 5398 5404 5408 5411 5414 5417 5421 5425 5428 5431 5432 5433 5434 5434 5433 5433 5431 5430 5428 5426 5425 5423 5420 5418
5444 5439 5435 5432 5429 5424 5420 5415 5410 5404 5400 5396 5393 5391 5390 5392 5394 5396 5398 5402 5405 5409 5413 5416 5420 5424 5428 5431 5433 5435 5435 5436 5436 5436 5435 5434 5432 5431 5429 5428 5426 5422 5421
5443 5436 5434 5433 5430 5426 5421 5417 5411 5407 5402 5398 5396 5394 5394 5395 5397 5399 5402 5405 5408 5411 5415 5418 5423 5427 5430 5434 5436 5437 5438 5438 5438 5438 5438 5437 5436 5435 5433 5432 5430 5427 5426
5446 5440 5432 5433 5431 5426 5422 5417 5412 5409 5404 5400 5398 5396 5394 5397 5399 5402 5404 5407 5410 5413 5417 5420 5425 5429 5433 5435 5438 5439 5439 5439 5439 5439 5440 5440 5439 5438 5437 5436 5434 5432 5430
5447 5444 5440 5436 5431 5426 5422 5418 5415 5411 5407 5404 5402 5401 5399 5401 5403 5405 5408 5411 5414 5417 5420 5424 5428 5431 5434 5436 5438 5439 5439 5439 5438 5439 5440 5442 5442 5441 5440 5439 5437 5436 5434
5448 5446 5441 5436 5432 5424 5424 5421 5417 5414 5410 5408 5406 5406 5405 5405 5407 5409 5411 5414 5418 5421 5424 5427 5430 5433 5435 5437 5438 5438 5436 5436 5436 5438 5440 5442 5443 5443 5442 5441 5440 5439 5437
5449 5446 5442 5438 5434 5431 5427 5423 5419 5416 5414 5411 5409 5408 5408 5409 5410 5412 5414 5418 5421 5424 5427 5430 5431 5433 5435 5435 5436 5436 5434 5435 5436 5439 5441 5443 5444 5444 5443 5442 5442 5441 5440
5450 5447 5444 5440 5436 5432 5428 5424 5421 5418 5416 5414 5412 5411 5411 5412 5413 5415 5417 5421 5424 5426 5428 5430 5431 5431 5433 5433 5433 5434 5436 5438 5440 5441 5443 5445 5445 5445 5444 5443 5443 5442 5442
5450 5447 5444 5440 5435 5432 5429 5426 5422 5420 5418 5416 5415 5414 5414 5415 5416 5417 5419 5422 5425 5427 5428 5429 5430 5429 5430 5431 5432 5435 5438 5441 5443 5444 5445 5446 5446 5444 5444 5444 5444 5443 5442